This is the latest recevied weather packets stored in our database for station/object N9EA. If no packets are shown the sender has not sent any weather packets the latest 10 day(s).
| Time | Temp. | Humidity | Pressure | Rain* | Wind** | Luminosity | Snow |
|---|---|---|---|---|---|---|---|
| 1777480426 | 15° C | 44% | 1016 hPa | 0 mm | - | 682 W/m² | - |
| 1777480122 | 13.89° C | 45% | 1016 hPa | 0 mm | - | 676 W/m² | - |
| 1777479819 | 13.89° C | 44% | 1016.2 hPa | 0 mm | - | 667 W/m² | - |
| 1777479516 | 13.89° C | 45% | 1015.9 hPa | 0 mm | - | 657 W/m² | - |
| 1777479213 | 13.89° C | 46% | 1015.9 hPa | 0 mm | - | 650 W/m² | - |
| 1777478910 | 13.33° C | 46% | 1016.1 hPa | 0 mm | - | 639 W/m² | - |
| 1777478606 | 13.33° C | 45% | 1015.9 hPa | 0 mm | - | 629 W/m² | - |
| 1777478303 | 13.89° C | 45% | 1016 hPa | 0 mm | - | 620 W/m² | - |
| 1777478000 | 12.78° C | 47% | 1016 hPa | 0 mm | - | 607 W/m² | - |
| 1777477695 | 13.33° C | 47% | 1016 hPa | 0 mm | - | 598 W/m² | - |
| 1777477392 | 13.33° C | 48% | 1016.1 hPa | 0 mm | - | 587 W/m² | - |
| 1777477088 | 13.33° C | 49% | 1016 hPa | 0 mm | - | 575 W/m² | - |
| 1777476786 | 12.78° C | 52% | 1016.1 hPa | 0 mm | - | 171 W/m² | - |
| 1777476477 | 13.33° C | 52% | 1016 hPa | 0 mm | - | 585 W/m² | - |
| 1777476174 | 13.33° C | 51% | 1016 hPa | 0 mm | - | 543 W/m² | - |
| 1777475870 | 13.33° C | 51% | 1016 hPa | 0 mm | - | 536 W/m² | - |
| 1777475566 | 12.78° C | 52% | 1016.2 hPa | 0 mm | - | 519 W/m² | - |
| 1777475262 | 12.22° C | 52% | 1016 hPa | 0 mm | - | 511 W/m² | - |
| 1777474957 | 12.22° C | 54% | 1016 hPa | 0 mm | - | 496 W/m² | - |
| 1777474654 | 12.22° C | 56% | 1015.9 hPa | 0 mm | - | 493 W/m² | - |
| 1777474351 | 12.22° C | 55% | 1015.8 hPa | 0 mm | - | 487 W/m² | - |
| 1777474047 | 12.78° C | 56% | 1016 hPa | 0 mm | - | 486 W/m² | - |
| 1777473745 | 12.22° C | 58% | 1016 hPa | 0 mm | - | 442 W/m² | - |
| 1777473441 | 11.67° C | 60% | 1015.9 hPa | 0 mm | - | 433 W/m² | - |
| 1777473137 | 11.67° C | 60% | 1015.9 hPa | 0 mm | - | 419 W/m² | - |
* Rain latest hour (hover to see other rain measurements)
** Current wind speed in m/s (hover to see current wind gust speed)